• In Belarus
  • List of Countries
  • For 7 days
  • Water Temperature
  • Satellite Maps
  • Weather Map
  • Weather Widgets
  • user-avatar
    Login

    Hourly Weather Cape Breton Island

    Today, 24 February, Saturday

    Time Temperature Precipitation Wind Pressure Humidity
    00:00 -10°C° 0.1 mm 5 mps 729 mmHg 62%
    01:00 -10°C° 0.1 mm 5 mps 728 mmHg 67%
    02:00 -9°C° 0 mm 4 mps 726 mmHg 76%
    03:00 -8°C° 0.3 mm 4 mps 725 mmHg 80%
    04:00 -7°C° 0.3 mm 5 mps 724 mmHg 84%
    05:00 -7°C° 0.3 mm 5 mps 722 mmHg 88%
    06:00 -6°C° 0.3 mm 5 mps 721 mmHg 90%
    07:00 -5°C° 0.3 mm 5 mps 720 mmHg 92%
    08:00 -4°C° 0.3 mm 5 mps 719 mmHg 94%
    09:00 -4°C° 0.1 mm 5 mps 719 mmHg 91%
    10:00 -3°C° 0.1 mm 6 mps 719 mmHg 87%
    11:00 -2°C° 0.1 mm 6 mps 718 mmHg 84%
    12:00 -2°C° 0.1 mm 7 mps 719 mmHg 82%
    13:00 -2°C° 0.1 mm 7 mps 719 mmHg 79%
    14:00 -2°C° 0.1 mm 8 mps 719 mmHg 76%
    15:00 -5°C° 0 mm 8 mps 720 mmHg 76%
    16:00 -6°C° 0 mm 7 mps 721 mmHg 75%
    17:00 -7°C° 0 mm 7 mps 722 mmHg 75%
    18:00 -7°C° 0 mm 7 mps 723 mmHg 76%
    19:00 -8°C° 0 mm 7 mps 723 mmHg 77%
    20:00 -8°C° 0 mm 7 mps 724 mmHg 78%
    21:00 -9°C° 0 mm 7 mps 725 mmHg 75%
    22:00 -9°C° 0 mm 7 mps 726 mmHg 72%
    23:00 -11°C° 0 mm 7 mps 726 mmHg 69%

    Tomorrow, 25 February, Sunday

    Time Temperature Precipitation Wind Pressure Humidity
    00:00 -11°C° 0 mm 7 mps 727 mmHg 71%
    01:00 -11°C° 0 mm 7 mps 728 mmHg 73%
    02:00 -12°C° 0 mm 7 mps 729 mmHg 75%
    03:00 -13°C° 0 mm 7 mps 730 mmHg 73%
    04:00 -12°C° 0 mm 6 mps 731 mmHg 71%
    05:00 -14°C° 0 mm 6 mps 732 mmHg 69%
    06:00 -14°C° 0 mm 5 mps 733 mmHg 68%
    07:00 -14°C° 0 mm 5 mps 733 mmHg 68%
    08:00 -15°C° 0 mm 4 mps 734 mmHg 68%
    09:00 -14°C° 0 mm 4 mps 735 mmHg 63%
    10:00 -12°C° 0 mm 3 mps 735 mmHg 59%
    11:00 -10°C° 0 mm 3 mps 736 mmHg 55%
    12:00 -9°C° 0 mm 3 mps 736 mmHg 53%
    13:00 -7°C° 0 mm 2 mps 735 mmHg 50%
    14:00 -7°C° 0 mm 2 mps 735 mmHg 48%
    15:00 -7°C° 0 mm 2 mps 735 mmHg 52%
    16:00 -8°C° 0 mm 2 mps 735 mmHg 56%
    17:00 -9°C° 0 mm 3 mps 735 mmHg 60%
    18:00 -9°C° 0 mm 3 mps 735 mmHg 64%
    19:00 -10°C° 0 mm 3 mps 735 mmHg 67%
    20:00 -10°C° 0 mm 3 mps 735 mmHg 70%
    21:00 -10°C° 0 mm 3 mps 734 mmHg 70%
    22:00 -11°C° 0 mm 4 mps 734 mmHg 69%
    23:00 -11°C° 0 mm 4 mps 733 mmHg 69%

    Day after tomorrow, 26 February, Monday

    Time Temperature Precipitation Wind Pressure Humidity
    00:00 -12°C° 0.2 mm 5 mps 732 mmHg 72%
    01:00 -11°C° 0.2 mm 5 mps 732 mmHg 75%
    02:00 -11°C° 0.2 mm 6 mps 731 mmHg 78%
    03:00 -11°C° 0.2 mm 6 mps 730 mmHg 79%
    04:00 -10°C° 0.2 mm 6 mps 730 mmHg 81%
    05:00 -10°C° 0.2 mm 6 mps 729 mmHg 82%
    06:00 -9°C° 0.2 mm 6 mps 728 mmHg 84%
    07:00 -9°C° 0.2 mm 6 mps 728 mmHg 85%
    08:00 -8°C° 0.2 mm 7 mps 727 mmHg 86%
    09:00 -6°C° 0.6 mm 6 mps 726 mmHg 87%
    10:00 -6°C° 0.6 mm 6 mps 726 mmHg 88%
    11:00 -5°C° 0.6 mm 6 mps 725 mmHg 89%
    12:00 -4°C° 0.7 mm 6 mps 724 mmHg 90%
    13:00 -4°C° 0.7 mm 6 mps 723 mmHg 90%
    14:00 -3°C° 0.7 mm 6 mps 722 mmHg 91%
    15:00 -2°C° 0.5 mm 5 mps 721 mmHg 93%
    16:00 -1°C° 0.5 mm 3 mps 720 mmHg 95%
    17:00 -2°C° 0.5 mm 2 mps 719 mmHg 97%
    18:00 -2°C° 0 mm 3 mps 720 mmHg 95%
    19:00 -3°C° 0 mm 4 mps 720 mmHg 93%
    20:00 -2°C° 0 mm 5 mps 720 mmHg 92%
    21:00 -4°C° 0 mm 5 mps 720 mmHg 89%
    22:00 -5°C° 0 mm 5 mps 720 mmHg 87%
    23:00 -4°C° 0 mm 4 mps 720 mmHg 85%

    27 February, Tuesday

    Time Temperature Precipitation Wind Pressure Humidity
    00:00 -5°C° 0 mm 4 mps 720 mmHg 85%
    01:00 -5°C° 0 mm 4 mps 720 mmHg 86%
    02:00 -7°C° 0 mm 4 mps 720 mmHg 86%
    03:00 -7°C° 0 mm 4 mps 721 mmHg 87%
    04:00 -7°C° 0 mm 4 mps 721 mmHg 87%
    05:00 -8°C° 0 mm 4 mps 721 mmHg 88%
    06:00 -8°C° 0 mm 5 mps 722 mmHg 87%
    07:00 -8°C° 0 mm 5 mps 722 mmHg 86%
    08:00 -7°C° 0 mm 5 mps 723 mmHg 85%
    09:00 -8°C° 0 mm 6 mps 723 mmHg 79%
    10:00 -6°C° 0 mm 6 mps 723 mmHg 74%
    11:00 -7°C° 0 mm 7 mps 724 mmHg 68%
    12:00 -7°C° 0 mm 7 mps 724 mmHg 67%
    13:00 -7°C° 0 mm 7 mps 724 mmHg 66%
    14:00 -7°C° 0 mm 8 mps 724 mmHg 65%
    15:00 -8°C° 0 mm 7 mps 724 mmHg 67%
    16:00 -8°C° 0 mm 7 mps 724 mmHg 70%
    17:00 -9°C° 0 mm 6 mps 724 mmHg 72%
    18:00 -9°C° 0 mm 6 mps 725 mmHg 73%
    19:00 -9°C° 0 mm 6 mps 725 mmHg 74%
    20:00 -9°C° 0 mm 6 mps 725 mmHg 75%
    21:00 -8°C° 0 mm 5 mps 725 mmHg 77%
    22:00 -8°C° 0 mm 5 mps 725 mmHg 79%
    23:00 -8°C° 0 mm 5 mps 725 mmHg 81%

    28 February, Wednesday

    Time Temperature Precipitation Wind Pressure Humidity
    00:00 -9°C° 0 mm 4 mps 725 mmHg 82%
    01:00 -9°C° 0 mm 4 mps 725 mmHg 83%
    02:00 -9°C° 0 mm 4 mps 725 mmHg 84%
    03:00 -9°C° 0 mm 3 mps 725 mmHg 85%
    04:00 -9°C° 0 mm 3 mps 725 mmHg 86%
    05:00 -8°C° 0 mm 2 mps 725 mmHg 88%
    06:00 -8°C° 0 mm 2 mps 725 mmHg 86%
    07:00 -7°C° 0 mm 2 mps 725 mmHg 85%
    08:00 -6°C° 0 mm 1 mps 726 mmHg 83%
    09:00 -3°C° 0 mm 1 mps 725 mmHg 77%
    10:00 -2°C° 0 mm 1 mps 725 mmHg 71%
    11:00 0°C° 0 mm 1 mps 725 mmHg 65%
    12:00 -2°C° 0.1 mm 2 mps 725 mmHg 68%
    13:00 -1°C° 0.1 mm 2 mps 724 mmHg 70%
    14:00 -1°C° 0.1 mm 2 mps 724 mmHg 72%
    15:00 -1°C° 0.2 mm 2 mps 724 mmHg 76%
    16:00 -2°C° 0.2 mm 3 mps 723 mmHg 80%
    17:00 -2°C° 0.2 mm 3 mps 723 mmHg 83%
    18:00 -2°C° 0.5 mm 3 mps 723 mmHg 87%
    19:00 -3°C° 0.5 mm 2 mps 723 mmHg 91%
    20:00 -3°C° 0.5 mm 2 mps 723 mmHg 94%
    21:00 -3°C° 0.3 mm 2 mps 723 mmHg 94%
    22:00 -4°C° 0.3 mm 2 mps 723 mmHg 94%
    23:00 -4°C° 0.3 mm 2 mps 723 mmHg 95%

    1 March, Thursday

    Time Temperature Precipitation Wind Pressure Humidity
    00:00 -4°C° 0 mm 2 mps 723 mmHg 94%
    01:00 -4°C° 0 mm 2 mps 723 mmHg 94%
    02:00 -5°C° 0 mm 2 mps 724 mmHg 94%
    03:00 -5°C° 0 mm 2 mps 724 mmHg 94%
    04:00 -5°C° 0 mm 2 mps 725 mmHg 93%
    05:00 -6°C° 0 mm 3 mps 725 mmHg 92%
    06:00 -6°C° 0 mm 3 mps 726 mmHg 90%
    07:00 -6°C° 0 mm 3 mps 727 mmHg 89%
    08:00 -6°C° 0 mm 3 mps 727 mmHg 87%
    09:00 -5°C° 0 mm 3 mps 727 mmHg 81%
    10:00 -4°C° 0 mm 3 mps 728 mmHg 75%
    11:00 -2°C° 0 mm 3 mps 728 mmHg 69%
    12:00 -2°C° 0 mm 3 mps 728 mmHg 69%
    13:00 -2°C° 0 mm 3 mps 729 mmHg 69%
    14:00 -1°C° 0 mm 3 mps 729 mmHg 68%
    15:00 -2°C° 0 mm 3 mps 729 mmHg 72%
    16:00 -4°C° 0 mm 3 mps 729 mmHg 75%
    17:00 -5°C° 0 mm 3 mps 729 mmHg 78%
    18:00 -6°C° 0 mm 3 mps 729 mmHg 82%
    19:00 -6°C° 0 mm 2 mps 730 mmHg 86%
    20:00 -7°C° 0 mm 2 mps 730 mmHg 90%
    21:00 -7°C° 0 mm 2 mps 730 mmHg 89%
    22:00 -7°C° 0 mm 2 mps 729 mmHg 87%
    23:00 -8°C° 0 mm 3 mps 729 mmHg 86%
    Show more